[[{"header":{"parameterUnit":"m.s-1","parameterCategory":1,"la1":30.2991,"la2":30.254,"lo1":-89.0895,"lo2":-89.0444,"dy":0.0017,"dx":0.0017,"nx":28,"ny":28,"refTime":"2026-03-03T09:00:00:Z","depth":0,"parameterNumber":2,"parameterNumberName":"U-component_of_WINDS"},"data":[0,0,0,0,0,0,0,0,0,0,0,0,0,0,0,0,0,0,0,0,0,0,0,0,0,0,0,0,0,0,0,0,0,0,0,0,0,0,0,0,0,0,0,0,0,0,0,0,0,0,0,0,0,0,0,0,0,0,-4.6281,-4.6282,0,-4.6363,-4.6364,-4.6365,-4.6337,-4.6335,-4.6333,-4.6332,-4.6416,-4.6419,-4.6423,0,0,0,0,0,0,0,0,0,0,0,0,0,-4.6102,-4.6105,-4.6281,-4.6282,-4.6283,-4.6363,-4.6364,-4.6365,-4.6337,-4.6335,-4.6333,-4.6331,-4.6414,-4.6419,-4.6424,0,0,0,0,0,0,0,0,0,0,0,0,0,-4.6181,-4.6106,-4.6281,-4.6279,-4.6279,-4.6363,-4.6364,-4.6365,-4.6338,-4.6335,-4.6332,-4.633,-4.6413,-4.6419,-4.6424,-4.6515,0,0,-4.6442,-4.6445,0,0,0,0,0,0,0,0,-4.6177,-4.6188,-4.6278,-4.6279,-4.628,-4.6337,-4.6332,-4.6415,-4.6338,-4.6315,-4.6331,-4.6328,-4.6392,-4.6399,-4.642,-4.6519,-4.6522,-4.6443,-4.6446,-4.6449,-4.6451,0,0,0,0,0,0,0,-4.6171,-4.6184,-4.6313,-4.6279,-4.628,-4.6274,-4.6282,-4.6347,-4.6368,-4.6317,-4.6315,-4.6326,-4.6392,-4.6415,-4.6422,-4.6523,-4.6443,-4.6448,-4.6451,-4.6454,-4.6701,-4.6704,0,0,0,0,0,0,-4.6165,-4.618,-4.6311,-4.6316,-4.6221,-4.628,-4.6289,-4.6321,-4.6367,-4.6371,-4.6328,-4.6324,-4.6406,-4.6415,-4.6425,-4.6534,-4.6449,-4.6454,-4.6458,-4.6698,-4.6702,-4.6705,0,0,0,0,0,0,-4.6161,-4.6177,-4.6307,-4.6247,-4.6263,-4.6286,-4.6322,-4.6324,-4.6347,-4.6375,-4.6378,-4.6347,-4.6404,-4.6417,-4.6493,-4.6536,-4.6457,-4.6462,-4.6695,-4.6699,-4.6704,-4.6751,0,0,0,0,0,0,-4.6156,-4.6176,-4.621,-4.6248,-4.6267,-4.6373,-4.6325,-4.6328,-4.6358,-4.6353,-4.6394,-4.6399,-4.6403,-4.6484,-4.6499,-4.6543,-4.6467,-4.6691,-4.6697,-4.6702,-4.6746,-4.6757,-4.6767,0,0,0,0,0,-4.615,-4.622,-4.6211,-4.6227,-4.631,-4.6376,-4.6386,-4.639,-4.6361,-4.6396,-4.6414,-4.6397,-4.653,-4.6492,-4.6508,-4.6555,-4.6688,-4.6695,-4.6702,-4.6741,-4.6755,-4.6766,0,0,0,0,0,0,-4.6185,-4.6225,-4.6216,-4.63,-4.6335,-4.6371,-4.6414,-4.6404,-4.6448,-4.6442,-4.6445,-4.6455,-4.6533,-4.6552,-4.6509,-4.6645,-4.6605,-4.6615,-4.6629,-4.6642,-4.6652,-4.6645,-4.6472,0,0,0,0,0,-4.6203,-4.6253,-4.6285,-4.6356,-4.6374,-4.6392,-4.6421,-4.6421,-4.6457,-4.6471,-4.6495,-4.6531,-4.6581,-4.6613,-4.666,-4.675,-4.6758,-4.679,-4.68,-4.6809,-4.6817,-4.6866,-4.688,-4.6728,-4.6728,-4.6728,0,0,-4.6239,-4.6267,-4.6298,-4.6364,-4.6391,-4.6443,-4.6404,-4.6461,-4.6499,-4.648,-4.6553,-4.6572,-4.6612,-4.6696,-4.6734,-4.6714,-4.6862,-4.6818,-4.6824,-4.6827,-4.6874,-4.6889,-4.6902,-4.6732,-4.6732,-4.6731,0,0,-4.6331,-4.6358,-4.642,-4.6449,-4.649,-4.6502,-4.6517,-4.6556,-4.6568,-4.6641,-4.6628,-4.6675,-4.6761,-4.679,-4.6816,-4.6924,-4.691,-4.694,-4.6992,-4.704,-4.7052,-4.7063,-4.71,-4.7113,-4.6948,-4.6949,-4.6949,0,-4.6371,-4.6449,-4.6454,-4.6512,-4.6541,-4.6528,-4.6591,-4.6619,-4.6674,-4.6695,-4.6672,-4.6781,-4.6807,-4.6897,-4.6923,-4.6946,-4.6963,-4.6933,-4.705,-4.7061,-4.7071,-4.7106,-4.712,-4.6952,-4.6951,-4.6951,-4.6951,0,-4.6495,-4.655,-4.6595,-4.6649,-4.6684,-4.6745,-4.6759,-4.6795,-4.6794,-4.6808,-4.6884,-4.6916,-4.6969,-4.6992,-4.699,-4.7082,-4.7069,-4.7049,-4.7007,-4.7088,-4.7122,-4.7135,-4.6956,-4.6955,-4.6954,-4.6953,0,0,-4.6608,-4.6666,-4.6682,-4.6707,-4.6754,-4.6796,-4.6857,-4.691,-4.694,-4.698,-4.7031,-4.7106,-4.7088,-4.7118,-4.712,-4.7163,-4.7246,-4.7138,-4.7139,-4.7155,-4.7348,-4.7361,-4.7377,-4.7238,-4.7241,-4.7243,-4.7344,0,-4.6703,-4.6809,-4.6817,-4.6913,-4.6963,-4.6953,-4.7006,-4.7041,-4.7057,-4.7103,-4.7121,-4.7173,-4.7146,-4.7165,-4.7206,-4.7226,-4.7284,-4.722,-4.7285,-4.7287,-4.7272,-4.7395,-4.7408,-4.7502,-4.7358,-4.736,-4.7361,0,-4.6827,-4.687,-4.6971,-4.7012,-4.7034,-4.7081,-4.7131,-4.7176,-4.7216,-4.7225,-4.726,-4.7257,-4.7321,-4.728,-4.7368,-4.7324,-4.7352,-4.7367,-4.737,-4.7374,-4.7327,-4.74,-4.7532,-4.7545,-4.7382,-4.7381,-4.7379,0,-4.6897,-4.6982,-4.7053,-4.7075,-4.7125,-4.7158,-4.7181,-4.7218,-4.725,-4.7295,-4.7316,-4.7368,-4.7395,-4.7436,-4.7448,-4.7417,-4.7535,-4.7495,-4.7544,-4.7543,-4.7566,-4.7564,-4.7702,-4.7589,-4.7589,-4.7588,-4.7588,0,-4.7,-4.7062,-4.7085,-4.7129,-4.7198,-4.7208,-4.7277,-4.7298,-4.7332,-4.738,-4.7376,-4.7421,-4.7435,-4.7484,-4.7494,-4.7565,-4.7578,-4.7587,-4.7588,-4.7586,-4.7584,-4.7602,-4.7594,-4.7592,-4.7591,-4.759,-4.759,0,-4.7089,-4.7107,-4.7184,-4.7226,-4.7238,-4.7287,-4.7323,-4.7366,-4.7383,-4.7444,-4.7459,-4.7485,-4.7542,-4.7559,-4.7627,-4.7634,-4.7717,-4.7714,-4.7703,-4.7702,-4.7749,-4.7744,-4.7901,-4.7922,-4.7797,-4.7798,-4.7799,0,-4.7152,-4.7199,-4.7247,-4.7279,-4.7303,-4.7354,-4.7387,-4.74,-4.7435,-4.7486,-4.7522,-4.7579,-4.7624,-4.7716,-4.7741,-4.7794,-4.7791,-4.7843,-4.7798,-4.7794,-4.7789,-4.7785,-4.779,-4.7849,-4.7851,-4.7852,-4.7853,0,-4.7262,-4.7269,-4.7317,-4.7368,-4.7408,-4.7449,-4.7489,-4.7516,-4.7534,-4.7574,-4.7632,-4.7667,-4.7738,-4.7794,-4.7848,-4.7872,-4.7866,-4.7867,-4.7881,-4.7877,-4.7868,-4.7872,-4.7723,-4.7863,-4.7862,-4.7861,-4.786,-4.786,-4.7339,-4.738,-4.7421,-4.7474,-4.7506,-4.7544,-4.7586,-4.7609,-4.7657,-4.7715,-4.7721,-4.7784,-4.7825,-4.7897,-4.7925,-4.7974,-4.7959,-4.7979,-4.7984,-4.7988,-4.7991,-4.7863,-4.7985,-4.7985,-4.7984,-4.7984,-4.7984,0,-4.7447,-4.7473,-4.7523,-4.7578,-4.7621,-4.7613,-4.7657,-4.7693,-4.7749,-4.7788,-4.7833,-4.7901,-4.7956,-4.7987,-4.8042,-4.8077,-4.8075,-4.809,-4.8087,-4.8092,-4.8002,-4.7984,-4.8091,-4.8091,-4.8091,-4.8091,-4.8091,-4.8091,-4.7508,-4.7578,-4.7591,-4.7677,-4.7704,-4.7765,-4.7791,-4.7826,-4.7857,-4.7933,-4.7979,-4.7999,-4.8036,-4.8094,-4.8145,-4.8153,-4.8172,-4.8189,-4.8195,-4.811,-4.8098,-4.8088,-4.8071,-4.8194,-4.8194,-4.828,-4.8281,-4.8282]},{"header":{"parameterUnit":"m.s-1","parameterCategory":1,"la1":30.2991,"la2":30.254,"lo1":-89.0895,"lo2":-89.0444,"dy":0.0017,"dx":0.0017,"nx":28,"ny":28,"refTime":"2026-03-03T09:00:00:Z","depth":0,"parameterNumber":3,"parameterNumberName":"V-component_of_WINDS"},"data":[0,0,0,0,0,0,0,0,0,0,0,0,0,0,0,0,0,0,0,0,0,0,0,0,0,0,0,0,0,0,0,0,0,0,0,0,0,0,0,0,0,0,0,0,0,0,0,0,0,0,0,0,0,0,0,0,0,0,2.3994,2.3995,0,2.4057,2.4058,2.4059,2.4071,2.4071,2.4071,2.407,2.4133,2.4135,2.4137,0,0,0,0,0,0,0,0,0,0,0,0,0,2.3884,2.3886,2.3994,2.3995,2.3995,2.4057,2.4058,2.4059,2.4072,2.4071,2.407,2.407,2.4132,2.4134,2.4137,0,0,0,0,0,0,0,0,0,0,0,0,0,2.3938,2.3887,2.3994,2.4009,2.4011,2.4057,2.4058,2.4059,2.4072,2.4071,2.407,2.407,2.4131,2.4134,2.4137,2.4171,0,0,2.4147,2.4148,0,0,0,0,0,0,0,0,2.3935,2.3942,2.4006,2.4008,2.4011,2.4056,2.4042,2.4097,2.4072,2.4049,2.407,2.4069,2.4108,2.4113,2.4126,2.4174,2.4177,2.4147,2.4149,2.4151,2.4151,0,0,0,0,0,0,0,2.3931,2.3939,2.4019,2.4007,2.401,2.4013,2.402,2.4053,2.4081,2.4051,2.4052,2.4059,2.4109,2.4123,2.4127,2.4178,2.4147,2.415,2.4152,2.4153,2.4261,2.4261,0,0,0,0,0,0,2.3925,2.3936,2.4017,2.4021,2.397,2.4016,2.4023,2.4042,2.4081,2.4086,2.406,2.406,2.4118,2.4124,2.413,2.4174,2.4151,2.4154,2.4155,2.426,2.4261,2.4262,0,0,0,0,0,0,2.3922,2.3932,2.4014,2.3979,2.399,2.4018,2.4039,2.4044,2.4058,2.4088,2.4093,2.4069,2.4117,2.4125,2.4162,2.4177,2.4155,2.4158,2.4258,2.426,2.4261,2.4262,0,0,0,0,0,0,2.3919,2.3931,2.3944,2.3979,2.3991,2.4045,2.404,2.4045,2.4064,2.4064,2.4098,2.4103,2.4118,2.4157,2.4165,2.418,2.416,2.4257,2.4259,2.4261,2.4261,2.4263,2.4265,0,0,0,0,0,2.3915,2.394,2.3944,2.3954,2.4008,2.4046,2.4053,2.407,2.4065,2.4078,2.4098,2.4102,2.4174,2.4161,2.417,2.4186,2.4256,2.4259,2.4261,2.426,2.4263,2.4265,0,0,0,0,0,0,2.3904,2.3945,2.395,2.3987,2.4013,2.4048,2.4065,2.4072,2.4099,2.4098,2.4118,2.4125,2.4161,2.4177,2.4162,2.4223,2.4215,2.4219,2.4211,2.4214,2.4216,2.4212,2.4163,0,0,0,0,0,2.3906,2.3934,2.3968,2.3997,2.401,2.4036,2.4052,2.4064,2.4091,2.4102,2.4124,2.415,2.4179,2.4197,2.4225,2.4263,2.4272,2.428,2.4282,2.4284,2.4287,2.4311,2.4316,2.4269,2.4269,2.4269,0,0,2.391,2.3936,2.3951,2.3996,2.4017,2.4046,2.4044,2.4074,2.4095,2.4106,2.4143,2.416,2.4191,2.4229,2.4247,2.4244,2.4302,2.4287,2.4288,2.429,2.4314,2.4318,2.4322,2.427,2.427,2.427,0,0,2.3932,2.3954,2.3982,2.4005,2.4038,2.4055,2.4062,2.4097,2.411,2.4147,2.4157,2.4183,2.4231,2.4254,2.4271,2.4307,2.4312,2.4315,2.4327,2.435,2.4354,2.4358,2.4372,2.4377,2.4318,2.4318,2.4318,0,2.3932,2.3976,2.3995,2.4026,2.4046,2.4059,2.4088,2.4109,2.4149,2.4163,2.4159,2.4223,2.4244,2.4289,2.4298,2.4311,2.4321,2.4311,2.4352,2.4356,2.4359,2.4373,2.4378,2.4318,2.4318,2.4318,2.4318,0,2.3976,2.4007,2.4025,2.4067,2.4089,2.4118,2.4143,2.4163,2.4173,2.4191,2.4231,2.4257,2.4293,2.4304,2.4313,2.4351,2.4349,2.4348,2.434,2.4364,2.4377,2.4383,2.4319,2.4319,2.4319,2.4319,0,0,2.399,2.4045,2.4051,2.4072,2.4111,2.4135,2.4166,2.4202,2.422,2.4248,2.4276,2.4319,2.432,2.434,2.4352,2.4373,2.4402,2.437,2.4371,2.4376,2.4448,2.4449,2.4455,2.4406,2.4407,2.4408,2.4446,0,2.4018,2.4075,2.4095,2.4142,2.4172,2.4187,2.4215,2.4242,2.4261,2.4289,2.4309,2.434,2.4338,2.4351,2.4372,2.4394,2.4417,2.4391,2.4432,2.4434,2.4425,2.4462,2.4462,2.4497,2.4452,2.4452,2.4453,0,2.4058,2.4089,2.414,2.4179,2.4192,2.4217,2.4253,2.4279,2.4312,2.4324,2.4349,2.4361,2.4395,2.4386,2.4435,2.4417,2.4436,2.445,2.4451,2.4456,2.4445,2.4468,2.4508,2.4514,2.4461,2.4461,2.446,0,2.4065,2.412,2.4158,2.4175,2.4221,2.4239,2.4258,2.4291,2.4312,2.4344,2.4358,2.4393,2.4412,2.4439,2.4461,2.4452,2.4509,2.45,2.4521,2.452,2.4531,2.4531,2.4576,2.4542,2.4542,2.4542,2.4542,0,2.4095,2.4125,2.4163,2.4186,2.4222,2.4246,2.4281,2.4301,2.4331,2.4359,2.4373,2.44,2.4426,2.4457,2.4474,2.4513,2.4521,2.4533,2.4537,2.4532,2.4531,2.4544,2.4543,2.4543,2.4543,2.4543,2.4542,0,2.4108,2.4135,2.4178,2.4219,2.4231,2.4256,2.4291,2.4315,2.4336,2.4372,2.4382,2.4414,2.4451,2.4475,2.4521,2.4533,2.4576,2.4579,2.4566,2.4568,2.4588,2.4586,2.4644,2.4653,2.4612,2.4612,2.4613,0,2.4126,2.415,2.4196,2.4217,2.4237,2.427,2.4293,2.4318,2.4342,2.4383,2.4402,2.4441,2.4473,2.4531,2.4558,2.4595,2.46,2.4617,2.4605,2.46,2.4602,2.46,2.4604,2.4619,2.462,2.462,2.462,0,2.4154,2.4167,2.42,2.4238,2.4266,2.4297,2.4328,2.4344,2.4375,2.4401,2.4439,2.4464,2.4514,2.4552,2.4592,2.4613,2.4622,2.4624,2.4631,2.4626,2.4618,2.4625,2.4572,2.4622,2.4622,2.4622,2.4622,2.4622,2.4171,2.4195,2.4232,2.4269,2.4296,2.4325,2.4351,2.4376,2.4409,2.4452,2.4465,2.4506,2.4541,2.4596,2.4618,2.4651,2.4649,2.4659,2.4661,2.4663,2.4665,2.4613,2.4658,2.4658,2.4658,2.4658,2.4658,0,2.4202,2.4227,2.4261,2.4306,2.4336,2.4344,2.4379,2.4404,2.444,2.4473,2.4505,2.4551,2.4589,2.4621,2.4661,2.4682,2.4687,2.4691,2.469,2.4696,2.4663,2.4654,2.4686,2.4686,2.4686,2.4686,2.4686,2.4686,2.4221,2.4263,2.4281,2.4337,2.4362,2.4403,2.4423,2.4451,2.4478,2.4529,2.4562,2.4583,2.4616,2.4659,2.4695,2.4704,2.4718,2.4722,2.4732,2.4701,2.4697,2.4694,2.4686,2.4725,2.4725,2.4762,2.4762,2.4762]}]]